Regional Weather Roundup
Issued by NWS Binghamton, NY

Home | Current Version | Previous Version | Text Only | Print | Product List | Glossary On
Versions: 1 2 3 4 5 6 7 8 9 10 11 12 13 14 15 16 17 18 19 20 21 22 23 24 25 26 27 28 29 30 31 32 33 34 35 36 37 38 39 40 41 42 43 44 45 46 47 48 49 50
000
ASUS41 KBGM 020110
RWRBGM
RWRBGM
BINGHAMTON REGIONAL WEATHER ROUNDUP
NATIONAL WEATHER SERVICE BINGHAMTON NY
900 PM EDT FRI AUG 01 2014

Note: "fair" indicates few or no clouds below 12,000 feet with no
significant weather and/or obstructions to visibility.

* = Station(s) that does not report precipitation, such as rain,
snow, etc, also no thunder or fog.

!NYZ009-015>018-022>025-036-037-044>046-055>057-062-020200
...CENTRAL NEW YORK...

CITY           SKY/WX    TMP DP  RH WIND       PRES   REMARKS
BINGHAMTON     PTCLDY    71  61  70 S9        30.19R
CORTLAND       MOCLDY    70  64  83 CALM      30.17S
DANSVILLE      PTCLDY    70  63  78 CALM      30.14R
ELMIRA         PTCLDY    68  62  81 W3        30.13R
ITHACA         PTCLDY    73  62  68 SE6       30.16S
HAMILTON       MOCLDY    70  64  83 CALM      30.18R
MONTICELLO     CLOUDY    64  64 100 CALM      30.24R
NORWICH        MOCLDY    72  59  64 S6        30.19R
PENN YAN       PTCLDY    72  65  78 N5        30.14R
ROME           CLEAR     71  64  78 CALM      30.15R
SIDNEY         CLEAR     72  64  78 S12G21    30.19R
SYRACUSE       MOCLDY    73  64  73 CALM      30.12S
$$

!PAZ038>040-043-044-047-048-072-020200
...NORTHEAST PENNSYLVANIA...

CITY           SKY/WX    TMP DP  RH WIND       PRES   REMARKS
HAZLETON       CLOUDY    64  61  88 SE3       30.24S
SCRANTON       CLOUDY    71  60  68 CALM      30.19S
TOWANDA*       CLEAR     73  61  64 SW12      30.16R
$$
&&
KEY
WCI = WIND CHILL INDEX
VSB = VISIBILITY
HX  = HEAT INDEX
$$


USA.gov is the U.S. government's official web portal to all federal, state and local government web resources and services.